Flag for Russia Weather past 2 weeks in Kemerovo, Russia

Now
25 °F

Mostly cloudy.


Feels Like: 20 °F
Forecast: 18 / 36 °F
Wind: 3 mph from Southeast

Location: Kemerovo

Current Time: Apr 2, 2015 at 12:01:35 PM

Latest Report: Apr 2, 2015 at 11:30 AM


Visibility: 4 mi

Pressure: 30.21 "Hg

Humidity: 86%

Dew point: 21 °F

Location of KemerovoLocation

Historic Weather in Kemerovo — Graph

°F

Kemerovo temperature yesterday

Maximum temperature yesterday: 41 °F (at 5:00 PM)
Minimum temperature yesterday: 19 °F (at 6:00 AM)
Average temperature yesterday: 31 °F

Past Weeks' High & Low Weather Summary

 TemperatureHumidityPressure
High41 °F (Mar 23, 10:00 AM)100% (Mar 18, 11:00 AM)30.36 "Hg (Mar 18, 11:00 AM)
Low7 °F (Mar 29, 7:00 AM)32% (Mar 30, 5:00 PM)29.27 "Hg (Mar 24, 11:30 PM)
Average27 °F77%30.07 "Hg
* Reported Mar 18 11:00 AM — Apr 2 11:00 AM, Kemerovo, Weather by CustomWeather, © 2015

Note: Actual official high and low records may vary slightly from our data, if they occured in-between our weather recording intervals... More about our weather records

Advertising

Kemerovo weather history for previous 24 hours

 ConditionsComfort  
Time TempWeatherWind HumidityBarometerVisibility
11:00 AM
Thu, Apr 2
25 °FMore clouds than sun.8 mph86%30.21 "Hg4 mi
10:30 AM21 °FMore clouds than sun.6 mph100%30.21 "Hg4 mi
10:00 AM21 °FIce fog.6 mph100%30.21 "Hg3 mi
9:30 AM19 °FIce fog.3 mph100%30.21 "Hg3 mi
9:00 AM19 °FIce fog.6 mph100%30.21 "Hg2 mi
8:30 AM19 °FIce fog.6 mph100%30.21 "Hg2 mi
8:00 AM19 °FIce fog.6 mph100%30.21 "Hg2 mi
7:30 AM18 °FIce fog.6 mph100%30.18 "Hg2 mi
7:00 AM18 °FIce fog.3 mph100%30.18 "Hg2 mi
6:30 AM18 °FIce fog.6 mph100%30.18 "Hg2 mi
6:00 AM18 °FIce fog.6 mph100%30.15 "Hg2 mi
5:30 AM18 °FIce fog.6 mph100%30.15 "Hg2 mi
5:00 AM18 °FIce fog.6 mph100%30.15 "Hg2 mi
4:30 AM19 °FIce fog.6 mph100%30.15 "Hg3 mi
4:00 AM19 °FClear.6 mph100%30.15 "Hg4 mi
3:30 AM21 °FClear.6 mph100%30.15 "Hg4 mi
3:00 AM21 °FClear.3 mph100%30.15 "Hg10 mi
2:30 AM25 °FClear.3 mph86%30.12 "Hg10 mi
2:00 AM25 °FClear.3 mph86%30.12 "Hg10 mi
1:30 AM30 °FClear.3 mph59%30.12 "Hg10 mi
1:00 AM30 °FClear.3 mph59%30.12 "Hg10 mi
12:30 AM30 °FClear.6 mph59%30.12 "Hg10 mi
12:00 AM30 °FClear.No wind59%30.12 "Hg10 mi
11:30 PM
Wed, Apr 1
34 °FClear.8 mph51%30.12 "Hg10 mi
11:00 PM34 °FClear.10 mph51%30.12 "Hg10 mi
10:30 PM34 °FClear.8 mph51%30.12 "Hg10 mi
10:00 PM34 °FClear.8 mph51%30.12 "Hg10 mi
9:30 PM36 °FClear.6 mph44%30.12 "Hg10 mi
9:00 PM36 °FClear.6 mph44%30.12 "Hg10 mi
8:30 PM37 °FSunny.3 mph41%30.12 "Hg10 mi
8:00 PM37 °FSunny.3 mph41%30.12 "Hg10 mi
7:30 PM39 °FSunny.8 mph42%30.09 "Hg10 mi
7:00 PM39 °FSunny.10 mph42%30.09 "Hg10 mi
6:30 PM41 °FSunny.10 mph39%30.09 "Hg10 mi
6:00 PM41 °FSunny.10 mph39%30.07 "Hg10 mi
5:30 PM41 °FSunny.8 mph39%30.07 "Hg10 mi
5:00 PM41 °FSunny.6 mph39%30.09 "Hg10 mi
4:30 PM39 °FSunny.6 mph45%30.09 "Hg10 mi
4:00 PM39 °FSunny.8 mph45%30.09 "Hg10 mi
3:30 PM39 °FSunny.10 mph45%30.09 "Hg10 mi
3:00 PM39 °FSunny.13 mph45%30.09 "Hg10 mi
2:30 PM37 °FSunny.13 mph45%30.09 "Hg10 mi
2:00 PM37 °FSunny.13 mph45%30.09 "Hg10 mi
1:30 PM36 °FSunny.13 mph48%30.09 "Hg10 mi
1:00 PM36 °FSunny.15 mph48%30.09 "Hg10 mi
12:30 PM34 °FSunny.10 mph51%30.12 "Hg10 mi
12:00 PM34 °FSunny.8 mph51%30.12 "Hg10 mi
Weather by CustomWeather, © 2015

See weather overviewHow to use our weather pages